Regional Weather Roundup
Issued by NWS

Home | Current Version | Previous Version | Graphics & Text | Print | Product List | Glossary On
Versions: 1 2 3 4 5 6 7 8 9 10 11 12 13 14 15 16 17 18 19 20 21 22 23 24 25 26 27 28 29 30 31 32 33 34 35 36 37 38 39 40 41 42 43 44 45 46 47 48 49 50
302
ASUS43 KOAX 291310
RWRNE

WEATHER ROUNDUP FOR NEBRASKA
NATIONAL WEATHER SERVICE OMAHA NE
800 AM CDT THU SEP 29 2016

NOTES: SATELLITE DATA IS BEING USED TO AUGMENT CLOUD COVER ABOVE
       12000 FEET.
       "FAIR" INDICATES FEW OR NO CLOUDS BELOW 12,000 FEET WITH NO
       SIGNIFICANT WEATHER AND/OR OBSTRUCTIONS TO VISIBILITY.

  * THESE STATIONS DO NOT REPORT WEATHER SUCH AS RAIN...SNOW OR FOG.

NEZ001>004-019>022-054>056-291400-
NEBRASKA PANHANDLE

CITY           SKY/WX    TMP DP  RH WIND       PRES   REMARKS
SCOTTSBLUFF    CLEAR     45  37  73 E8        30.34R
ALLIANCE       CLEAR     41  37  86 SE8       30.35S
CHADRON        CLEAR     50  36  58 S5        30.32S
KIMBALL        CLEAR     43  40  91 S7        30.37R
SIDNEY         CLEAR     44  39  82 S7        30.37S
$$

NEZ057>060-069>072-079>082-291400-
SOUTHWEST NEBRASKA

CITY           SKY/WX    TMP DP  RH WIND       PRES   REMARKS
NORTH PLATTE   CLOUDY    34  32  92 E6        30.43S WCI  29
IMPERIAL       CLOUDY    41  36  82 SE8       30.40S
LEXINGTON      CLOUDY    36  35  93 W3        30.45R
MCCOOK         CLOUDY    39  37  92 CALM      30.43R
OGALLALA       CLOUDY    42  38  86 E3        30.40S
$$

NEZ005>010-023>029-035>040-094-291400-
NORTH CENTRAL NEBRASKA

CITY           SKY/WX    TMP DP  RH WIND       PRES   REMARKS
VALENTINE      CLOUDY    38  35  89 NE3       30.42R
AINSWORTH      CLOUDY    37  37 100 S6        30.43S WCI  33
BROKEN BOW     CLOUDY    34  33  96 CALM      30.44R
O`NEILL        CLOUDY    40  38  95 CALM      30.46R
ORD            LGT RAIN  34  32  92 CALM      30.44R
THEDFORD       CLOUDY    35  33  96 CALM      30.44R
$$

NEZ041-046>049-061>064-073>077-083>087-291400-
SOUTH CENTRAL NEBRASKA

CITY           SKY/WX    TMP DP  RH WIND       PRES   REMARKS
GRAND ISLAND   CLEAR     40  38  93 CALM      30.45R
AURORA         CLEAR     40  40 100 N3        30.44S
HASTINGS       CLOUDY    40  38  93 CALM      30.45R
HEBRON         CLOUDY    41  40  97 CALM      30.44R
HOLDREGE       CLOUDY    37  36  94 CALM      30.44S
KEARNEY *      CLEAR     39  36  87 NW5       30.45R
YORK           CLOUDY    39  39 100 CALM      30.44R
$$

NEZ011>018-030>034-042>045-291400-
NORTHEAST NEBRASKA

CITY           SKY/WX    TMP DP  RH WIND       PRES   REMARKS
NORFOLK        CLOUDY    39  37  92 W3        30.45R
ALBION         CLOUDY    36  35  96 NW5       30.46R WCI  32
BLAIR          CLEAR     48  46  95 N10       30.41R
FREMONT        CLEAR     43  43  99 W3        30.44R
TEKAMAH        CLEAR     43  41  93 N5        30.43R
WAYNE          CLOUDY    37  36  97 CALM      30.46R
$$

NEZ050>053-065>068-078-088>093-291400-
SOUTHEAST NEBRASKA

CITY           SKY/WX    TMP DP  RH WIND       PRES   REMARKS
LINCOLN        CLEAR     44  43  96 N5        30.45R
OMAHA EPPLEY   CLEAR     46  42  86 N8        30.42R
BEATRICE       CLEAR     43  43  99 W5        30.42R
FALLS CITY     CLEAR     48  46  93 NW6       30.39R
NEBRASKA CITY  CLEAR     47  46  97 N5        30.41R
PLATTSMOUTH    CLEAR     46  44  91 NW3       30.42R
$$

NEZ044-045-051>053-067-291400-
OMAHA AREA

CITY           SKY/WX    TMP DP  RH WIND       PRES   REMARKS
OMAHA EPPLEY   CLEAR     46  42  86 N8        30.42R
BLAIR          CLEAR     48  46  95 N10       30.41R
FREMONT        CLEAR     43  43  99 W3        30.44R
MILLARD        CLEAR     48  45  91 CALM      30.42R
OFFUTT AFB     CLEAR     46  46  99 NW2       30.41R
PLATTSMOUTH    CLEAR     46  44  91 NW3       30.42R
WAHOO          FAIR      46  44  94 NW6       30.43R
$$




USA.gov is the U.S. government's official web portal to all federal, state and local government web resources and services.